SCP
0 0 0 0 0 0 0 0 0 0 0 0 0 0 1 1 1 1 0 0 0 0 0 1 1 1 1 1 1 1 1 1 0 0 0 0 0 0 0 0 0 0 0
0 0 0 0 0 0 0 0 0 0 0 0 0 0 0 0 0 0 0 0 0 0 0 1 1 1 1 1 1 1 1 1 1 1 1 1 0 0 0 0 0 0 0
0 0 0 0 0 0 0 0 0 0 0 0 0 0 0 0 0 0 0 0 0 0 0 0 1 1 1 1 1 1 1 1 1 1 1 1 1 0 0 0 0 0 0
0 0 0 0 0 0 0 0 0 0 0 0 0 0 0 0 0 0 0 0 0 0 0 0 1 1 1 1 1 1 1 1 1 1 1 1 1 1 1 0 0 0 0
0 0 0 0 0 0 0 0 0 0 0 0 0 0 0 0 0 0 0 0 0 0 0 0 1 1 1 1 1 1 1 1 1 1 1 1 1 1 1 1 0 0 0
0 0 0 0 0 0 0 0 0 0 0 0 0 0 0 0 0 0 0 0 0 0 0 1 1 1 1 1 1 2 2 2 1 1 1 1 1 1 1 1 1 1 0
0 0 0 0 0 0 0 0 0 0 0 0 0 0 0 0 0 0 0 0 0 0 0 0 1 1 1 1 1 2 2 2 2 2 2 2 1 1 1 1 1 1 1
0 0 0 0 0 0 0 0 0 0 0 0 0 0 0 0 0 0 0 0 0 0 0 0 1 1 1 1 1 2 2 2 2 2 2 2 2 1 1 1 1 1 1
0 0 0 0 0 0 0 0 0 0 0 0 0 0 0 0 0 0 0 0 0 0 0 0 0 1 1 1 1 1 2 2 2 2 2 2 2 2 1 1 1 1 1
0 0 0 0 0 0 0 0 0 0 0 0 0 0 0 0 0 0 0 0 0 0 0 0 0 1 1 1 1 1 1 2 2 2 2 2 2 2 2 2 2 2 2
0 0 0 0 0 0 0 0 0 0 0 0 0 0 0 0 0 0 0 0 0 0 0 0 0 1 1 1 1 1 1 1 2 2 2 2 2 2 2 2 2 2 2
0 0 0 0 0 0 0 0 0 0 0 0 0 0 0 0 0 0 0 0 0 0 0 0 0 0 1 1 1 1 0 1 1 2 2 2 2 2 2 2 2 2 2
0 0 0 0 0 0 0 0 0 0 0 0 0 0 0 0 0 0 0 0 0 0 0 0 0 0 0 1 1 0 0 0 1 1 1 2 2 2 2 2 2 2 2
0 0 0 0 0 0 0 0 0 0 0 0 0 0 0 0 0 0 0 0 0 0 0 0 0 0 0 0 0 0 0 0 0 0 1 1 1 2 2 2 2 2 2
0 0 0 0 0 0 0 0 0 0 0 0 0 0 0 0 0 0 0 0 0 0 0 0 0 0 0 0 0 0 0 0 0 0 0 0 1 1 1 1 1 1 1
0 0 0 0 0 0 0 0 0 0 0 0 0 0 0 0 0 0 0 0 0 0 0 0 0 0 0 0 0 0 0 0 0 0 0 0 0 0 0 0 0 0 0
0 0 0 0 0 0 0 0 0 0 0 0 0 0 0 0 0 0 0 0 0 0 0 0 0 0 0 0 0 0 0 0 0 0 0 0 0 0 0 0 0 0 0
0 0 0 0 0 0 0 0 0 0 0 0 0 0 0 0 0 0 0 0 0 0 0 0 0 0 0 0 0 0 0 0 0 0 0 0 0 0 0 0 0 0 0
0 0 0 0 0 0 0 0 0 0 0 0 0 0 0 0 0 0 0 0 0 0 0 0 0 0 0 0 0 0 0 0 0 0 0 0 0 0 0 0 0 0 0
0 0 0 0 0 0 0 0 0 0 0 0 0 0 0 0 0 0 0 0 0 0 0 0 0 0 0 0 0 0 0 0 0 0 0 0 0 0 0 0 0 0 0
0 0 0 0 0 0 0 0 0 0 0 0 0 0 0 0 0 0 0 0 0 0 0 0 0 0 0 0 0 0 0 0 0 0 0 0 0 0 0 0 0 0 0
0 0 0 0 0 0 0 0 0 0 0 0 0 0 0 0 0 0 0 0 0 0 0 0 0 0 0 0 0 0 0 0 0 0 0 0 0 0 0 0 0 0 0
0 0 0 0 0 0 0 0 0 0 0 0 0 0 0 0 0 0 0 0 0 0 0 0 0 0 0 0 0 0 0 0 0 0 0 0 0 0 0 0 0 0 0
0 0 0 0 0 0 0 0 0 0 0 0 0 0 0 0 0 0 0 0 0 0 0 0 0 0 0 0 0 0 0 0 0 0 0 0 0 0 0 0 0 0 0
0 0 0 0 0 0 0 0 0 0 0 0 0 0 0 0 0 0 0 0 0 0 0 0 0 0 0 0 0 0 0 0 0 0 0 0 0 0 0 0 0 0 0
0 0 0 0 0 0 0 0 0 0 0 0 0 0 0 0 0 0 0 0 0 0 0 0 0 0 0 0 0 0 0 0 0 0 0 0 0 0 0 0 0 0 0
Wind_Speed
12 12 10 9 11 10 10 10 10 10 10 10 9 10 11 11 10 9 5 9 11 13 14 15 15 15 17 18 17 17 16 16 15 14 13 12 11 10 9 8 8 7 7
12 12 12 11 10 11 11 11 12 11 10 9 10 11 11 12 11 11 9 8 12 13 15 15 16 17 17 18 19 18 17 17 17 16 14 13 12 11 10 10 9 8 8
14 13 11 11 11 12 13 11 12 10 10 10 11 12 11 12 11 12 11 8 8 12 15 16 16 17 18 19 19 19 19 19 18 16 15 14 14 13 12 11 10 9 8
16 14 11 11 12 12 10 10 10 10 10 10 10 10 10 9 13 13 11 10 9 8 11 15 16 17 18 19 20 19 19 19 19 18 17 16 15 14 13 12 11 10 9
17 14 11 11 13 11 10 10 10 10 11 11 11 11 11 11 11 12 13 13 11 10 10 10 15 16 17 19 20 20 19 20 20 19 18 17 16 15 14 13 12 12 11
17 14 11 14 14 11 11 11 13 11 11 11 11 12 12 12 11 12 13 12 11 12 12 12 10 12 17 18 19 20 20 20 20 20 19 18 18 17 16 15 14 13 13
16 14 12 13 13 12 13 14 12 13 11 10 11 11 12 14 14 12 12 12 13 13 13 12 11 10 9 17 18 19 22 21 21 21 20 19 19 19 18 16 15 15 14
16 13 14 13 13 12 14 14 13 11 10 9 9 9 10 11 12 13 12 12 13 12 13 13 13 12 11 9 12 18 19 22 22 22 21 21 21 21 19 18 17 16 16
16 15 15 14 14 13 12 14 13 13 11 11 9 8 8 8 8 9 13 13 13 12 12 12 13 13 13 11 11 15 19 21 23 23 23 23 23 22 21 19 18 17 16
16 16 16 16 15 13 14 13 13 12 12 10 9 9 11 12 10 9 7 9 12 13 13 11 12 13 13 11 11 11 16 20 23 23 24 24 24 24 23 20 19 18 16
16 16 16 15 15 13 15 15 15 13 10 11 10 10 11 11 14 12 13 10 9 9 10 11 10 10 11 12 11 14 14 18 22 23 23 24 25 25 24 22 20 18 17
13 17 17 16 16 14 15 16 15 16 13 13 11 10 10 10 10 11 13 13 12 10 10 9 9 9 9 10 12 12 12 15 18 20 21 22 23 24 24 22 21 20 19
13 17 17 16 15 15 16 16 15 15 15 14 12 10 10 11 11 11 12 12 13 11 10 9 9 9 9 9 10 12 12 14 16 18 18 20 21 22 22 21 22 22 21
14 18 18 17 17 17 16 16 14 14 13 14 14 13 10 10 10 11 12 11 12 12 12 14 9 9 9 9 9 12 12 16 17 17 17 18 20 20 20 20 20 19 18
15 18 18 18 17 17 16 16 12 15 14 14 13 14 11 10 10 10 10 10 11 12 13 14 11 10 9 8 8 10 12 13 16 17 17 17 19 19 19 19 18 17 16
17 19 19 18 18 17 16 15 14 14 15 14 12 14 12 9 9 8 9 10 10 12 13 11 10 8 8 7 9 10 9 11 12 14 15 17 19 20 20 20 20 19 18
17 18 18 18 18 18 17 15 15 16 16 15 14 14 13 12 9 7 7 8 10 10 12 12 8 6 8 9 7 6 6 7 8 14 17 18 19 20 20 20 20 20 19
17 17 18 18 18 18 17 16 16 15 14 15 14 14 14 11 10 8 6 7 8 9 11 13 8 7 8 9 9 9 7 6 7 14 17 18 19 19 19 19 18 17 16
17 17 17 17 17 18 17 17 16 14 13 13 13 13 13 13 11 8 7 6 6 7 8 9 8 6 5 6 9 10 9 7 8 11 16 17 18 18 18 18 18 16 15
17 17 17 17 17 17 17 17 16 12 12 12 12 12 12 13 13 11 7 6 5 6 6 6 6 6 5 6 8 10 10 9 8 9 10 12 16 17 18 18 18 16 16
16 16 16 16 16 15 15 20 15 11 11 12 12 12 12 15 18 14 8 5 4 3 3 4 4 4 5 7 7 7 10 10 9 8 9 9 10 9 11 15 16 17 16
16 16 16 16 16 14 23 27 19 10 10 11 11 12 12 13 16 18 19 17 13 6 3 2 1 1 2 3 5 7 9 11 8 6 9 8 8 9 8 8 14 17 17
16 16 15 16 16 18 25 27 23 11 9 9 11 11 10 11 13 11 14 17 18 22 18 8 7 6 5 4 2 8 8 8 7 7 10 7 7 9 7 10 18 18 18
14 14 15 15 15 17 24 27 24 11 8 9 10 11 11 10 11 11 10 12 13 16 17 13 11 12 11 9 6 4 8 10 9 6 5 7 7 8 9 10 16 18 18
14 14 14 15 15 16 22 26 22 9 7 9 10 11 11 10 15 16 12 11 12 12 16 23 24 22 26 25 15 6 6 8 6 4 4 5 6 6 7 8 11 17 16
13 13 13 14 14 14 20 24 22 9 8 8 8 9 13 13 17 17 12 11 12 11 11 13 16 18 18 20 24 14 6 4 5 4 3 4 5 5 6 4 5 6 8
Wind_Direction
344 342 335 337 334 335 331 326 317 312 299 285 271 261 256 252 248 243 230 198 221 234 241 245 244 240 231 223 217 215 212 209 208 207 203 198 196 193 190 190 189 190 192
342 337 332 333 333 333 328 320 315 309 298 288 279 269 262 257 253 249 248 218 213 229 238 242 242 241 236 228 220 215 213 212 210 207 204 201 199 196 192 189 186 185 187
342 336 330 329 334 329 324 320 317 310 301 292 280 272 266 261 257 253 250 249 234 218 227 237 240 240 238 234 226 218 214 212 210 206 203 201 199 197 195 191 187 185 185
343 336 330 330 332 326 323 323 320 317 307 296 286 276 268 261 259 256 252 244 244 243 223 222 233 238 238 236 231 223 214 210 209 207 205 201 199 198 197 195 192 190 188
342 336 330 331 331 327 325 324 324 319 309 300 290 280 269 262 258 255 251 247 242 241 246 220 217 231 236 236 232 226 218 211 209 208 207 203 200 199 199 198 197 196 194
340 336 331 334 333 328 328 326 322 317 307 298 290 280 270 263 256 253 252 247 241 239 239 244 231 222 225 233 232 227 221 215 211 210 208 205 202 201 201 200 199 199 198
338 336 334 333 333 329 325 322 323 318 313 311 295 279 263 253 250 249 246 246 242 238 237 237 238 239 221 217 226 225 221 217 214 212 210 207 205 203 203 202 200 200 199
337 336 336 334 331 326 323 324 322 315 311 312 307 297 273 258 240 239 241 240 242 239 236 235 235 234 237 227 212 214 217 217 216 214 211 208 207 205 204 202 201 201 200
334 335 335 333 329 326 320 319 316 311 309 306 291 285 283 270 277 240 233 236 236 237 235 234 233 233 233 233 226 206 210 215 216 215 213 211 208 207 204 201 200 199 199
332 333 334 333 329 324 318 316 313 306 299 295 293 274 273 286 284 275 249 237 240 239 237 233 233 232 232 233 231 224 204 211 216 215 214 212 209 206 203 198 196 196 194
331 333 334 332 329 323 319 315 311 303 294 287 284 283 280 274 264 264 266 259 241 235 238 236 233 233 232 232 232 228 206 210 217 215 213 212 210 206 203 196 194 192 190
330 332 332 330 326 323 321 317 313 306 296 285 278 274 271 267 264 260 258 257 256 245 234 234 233 230 229 230 231 232 212 212 219 218 213 209 208 206 202 194 191 188 187
330 330 330 327 325 323 321 319 318 313 305 293 282 276 271 265 265 266 266 262 260 257 245 236 236 234 228 227 228 220 221 220 222 222 215 207 204 203 199 192 189 187 186
327 326 327 324 323 323 322 321 317 316 313 307 293 283 274 267 263 258 258 261 260 256 246 240 233 231 229 226 227 209 224 217 220 222 218 206 198 195 193 185 182 181 178
325 326 325 324 323 323 323 323 317 320 318 312 305 294 280 269 265 260 255 252 253 255 250 242 233 225 223 223 215 216 228 210 208 210 208 200 190 180 174 171 167 161 150
327 326 326 326 324 324 324 323 319 321 323 319 315 307 296 281 268 263 256 250 247 252 257 252 237 223 213 212 205 213 209 174 175 176 173 168 163 157 152 149 144 142 141
329 327 327 326 326 325 326 324 321 321 325 325 325 318 312 302 282 268 262 256 248 245 251 252 243 222 210 199 181 176 160 152 146 142 140 137 135 133 133 134 136 138 138
330 328 327 326 327 327 327 324 322 322 326 328 329 326 323 320 305 282 268 262 257 249 247 245 225 211 208 194 175 162 150 137 134 132 130 127 125 125 126 126 128 129 128
330 330 329 328 327 327 326 325 323 322 330 332 332 332 333 332 326 313 292 273 267 262 249 242 221 200 196 183 169 156 144 135 134 136 133 132 130 129 130 130 131 130 129
331 331 329 329 327 326 325 326 322 325 335 337 338 338 339 343 339 328 310 296 282 269 254 237 214 190 177 172 164 156 147 144 141 140 136 135 136 136 138 138 134 130 128
332 330 330 330 330 328 329 329 329 337 341 343 344 344 344 349 350 352 351 343 312 284 276 252 212 182 170 169 164 157 149 141 133 139 134 138 138 134 134 134 129 129 128
331 330 330 330 331 332 331 334 340 337 343 346 346 346 346 351 355 360 9 22 28 19 349 320 287 140 129 138 141 144 141 142 134 133 129 122 131 129 133 134 133 130 128
329 328 327 329 330 331 335 337 343 342 345 347 346 346 348 353 4 4 13 26 31 36 39 37 42 32 32 18 107 144 143 131 113 122 121 105 112 114 113 118 126 126 125
325 324 325 327 329 331 336 338 341 341 346 348 347 347 347 358 16 21 25 34 37 36 40 43 46 41 35 22 23 68 105 98 87 64 93 110 113 104 101 103 108 112 115
321 322 323 326 329 332 336 339 345 339 347 352 349 349 356 12 30 34 33 38 41 36 38 48 50 46 42 39 36 59 100 122 111 67 43 100 114 93 75 79 94 99 103
319 323 322 325 328 332 337 341 351 347 352 353 352 357 12 31 44 43 39 39 41 35 36 40 43 41 41 38 38 36 32 94 104 93 46 89 119 116 98 64 71 88 93